Time,TemperatureF,DewpointF,PressureIn,WindDirection,WindDirectionDegrees,WindSpeedMPH,WindSpeedGustMPH,Humidity,HourlyPrecipIn,Conditions,Clouds,dailyrainin,SoftwareType,DateUTC
2013-04-30 00:11:00,53.4,52.0,30.02,NNE,33,1.0,3.0,93,0.00,,,0.00,weatherlink.com 1.10,2013-04-30 04:11:00,
2013-04-30 00:26:00,53.3,51.0,30.02,NNE,33,0.0,1.0,93,0.00,,,0.00,weatherlink.com 1.10,2013-04-30 04:26:00,
2013-04-30 00:41:00,53.3,51.0,30.03,NNE,33,0.0,0.0,93,0.00,,,0.00,weatherlink.com 1.10,2013-04-30 04:41:00,
2013-04-30 00:56:00,53.2,51.0,30.03,NNE,33,0.0,0.0,93,0.00,,,0.00,weatherlink.com 1.10,2013-04-30 04:56:00,
2013-04-30 01:11:00,53.2,51.0,30.03,NNE,33,0.0,0.0,93,0.00,,,0.00,weatherlink.com 1.10,2013-04-30 05:11:00,
2013-04-30 01:26:00,53.1,51.0,30.03,NNE,33,1.0,1.0,93,0.00,,,0.00,weatherlink.com 1.10,2013-04-30 05:26:00,
2013-04-30 01:41:00,53.1,51.0,30.03,ENE,76,0.0,2.0,92,0.00,,,0.00,weatherlink.com 1.10,2013-04-30 05:41:00,
2013-04-30 01:56:00,53.1,51.0,30.03,ENE,76,0.0,0.0,92,0.00,,,0.00,weatherlink.com 1.10,2013-04-30 05:56:00,
2013-04-30 02:11:00,52.5,51.0,30.02,NE,53,0.0,3.0,93,0.00,,,0.00,weatherlink.com 1.10,2013-04-30 06:11:00,
2013-04-30 02:26:00,52.1,51.0,30.02,NE,53,0.0,0.0,94,0.00,,,0.00,weatherlink.com 1.10,2013-04-30 06:26:00,
2013-04-30 02:42:00,52.0,50.0,30.02,NE,49,0.0,4.0,94,0.00,,,0.00,weatherlink.com 1.10,2013-04-30 06:42:00,
2013-04-30 02:57:00,51.7,50.0,30.02,NE,49,1.0,2.0,95,0.00,,,0.00,weatherlink.com 1.10,2013-04-30 06:57:00,
2013-04-30 03:12:00,51.3,50.0,30.02,North,360,0.0,3.0,95,0.00,,,0.00,weatherlink.com 1.10,2013-04-30 07:12:00,
2013-04-30 03:27:00,51.2,50.0,30.02,North,360,0.0,0.0,96,0.00,,,0.00,weatherlink.com 1.10,2013-04-30 07:27:00,
2013-04-30 03:42:00,51.1,50.0,30.02,North,360,0.0,0.0,96,0.00,,,0.00,weatherlink.com 1.10,2013-04-30 07:42:00,
2013-04-30 03:57:00,51.1,50.0,30.02,North,360,0.0,1.0,96,0.00,,,0.00,weatherlink.com 1.10,2013-04-30 07:57:00,
2013-04-30 04:12:00,50.9,50.0,30.03,NE,44,0.0,2.0,96,0.00,,,0.00,weatherlink.com 1.10,2013-04-30 08:12:00,
2013-04-30 04:27:00,50.8,50.0,30.03,NE,44,0.0,0.0,96,0.00,,,0.00,weatherlink.com 1.10,2013-04-30 08:27:00,
2013-04-30 04:42:00,50.8,50.0,30.03,NE,44,0.0,0.0,96,0.00,,,0.00,weatherlink.com 1.10,2013-04-30 08:42:00,
2013-04-30 04:57:00,50.4,49.0,30.04,NE,44,0.0,2.0,96,0.00,,,0.00,weatherlink.com 1.10,2013-04-30 08:57:00,
2013-04-30 05:12:00,49.9,49.0,30.05,North,350,1.0,3.0,96,0.00,,,0.00,weatherlink.com 1.10,2013-04-30 09:12:00,
2013-04-30 05:27:00,49.6,49.0,30.05,North,355,0.0,3.0,96,0.00,,,0.00,weatherlink.com 1.10,2013-04-30 09:27:00,
2013-04-30 05:42:00,49.5,49.0,30.06,North,9,0.0,3.0,97,0.00,,,0.00,weatherlink.com 1.10,2013-04-30 09:42:00,
2013-04-30 05:57:00,49.3,48.0,30.06,SE,134,2.0,4.0,96,0.00,,,0.00,weatherlink.com 1.10,2013-04-30 09:57:00,
2013-04-30 06:12:00,49.3,48.0,30.07,North,355,3.0,3.0,96,0.00,,,0.00,weatherlink.com 1.10,2013-04-30 10:12:00,
2013-04-30 06:27:00,49.3,49.0,30.07,NE,37,2.0,2.0,97,0.00,,,0.00,weatherlink.com 1.10,2013-04-30 10:27:00,
2013-04-30 06:42:00,49.3,49.0,30.08,NE,37,0.0,2.0,97,0.00,,,0.00,weatherlink.com 1.10,2013-04-30 10:42:00,
2013-04-30 06:57:00,49.4,49.0,30.08,NE,37,0.0,0.0,97,0.00,,,0.00,weatherlink.com 1.10,2013-04-30 10:57:00,
2013-04-30 07:12:00,49.3,48.0,30.09,ENE,63,2.0,3.0,96,0.00,,,0.00,weatherlink.com 1.10,2013-04-30 11:12:00,
2013-04-30 07:27:00,49.3,48.0,30.10,East,84,0.0,0.0,96,0.00,,,0.00,weatherlink.com 1.10,2013-04-30 11:27:00,
2013-04-30 07:42:00,49.4,49.0,30.11,NNE,32,1.0,3.0,97,0.00,,,0.00,weatherlink.com 1.10,2013-04-30 11:42:00,
2013-04-30 07:57:00,49.6,49.0,30.11,NE,52,2.0,3.0,96,0.00,,,0.00,weatherlink.com 1.10,2013-04-30 11:57:00,
2013-04-30 08:12:00,49.8,49.0,30.11,NE,34,1.0,4.0,96,0.00,,,0.00,weatherlink.com 1.10,2013-04-30 12:12:00,
2013-04-30 08:27:00,50.0,49.0,30.11,NE,34,1.0,2.0,96,0.00,,,0.00,weatherlink.com 1.10,2013-04-30 12:27:00,
2013-04-30 08:42:00,50.3,49.0,30.11,ENE,75,0.0,3.0,95,0.00,,,0.00,weatherlink.com 1.10,2013-04-30 12:42:00,
2013-04-30 08:57:00,50.8,49.0,30.12,NE,45,0.0,3.0,94,0.00,,,0.00,weatherlink.com 1.10,2013-04-30 12:57:00,
2013-04-30 09:12:00,51.5,49.0,30.12,NE,36,2.0,4.0,92,0.00,,,0.00,weatherlink.com 1.10,2013-04-30 13:12:00,
2013-04-30 09:27:00,52.0,50.0,30.12,North,360,1.0,3.0,91,0.00,,,0.00,weatherlink.com 1.10,2013-04-30 13:27:00,
2013-04-30 09:42:00,52.2,49.0,30.12,ENE,61,1.0,3.0,90,0.00,,,0.00,weatherlink.com 1.10,2013-04-30 13:42:00,
2013-04-30 09:57:00,52.4,50.0,30.12,NNE,22,1.0,4.0,90,0.00,,,0.00,weatherlink.com 1.10,2013-04-30 13:57:00,
2013-04-30 10:12:00,52.6,50.0,30.12,NE,40,0.0,4.0,90,0.00,,,0.00,weatherlink.com 1.10,2013-04-30 14:12:00,
2013-04-30 10:27:00,52.9,50.0,30.12,NE,43,2.0,5.0,89,0.00,,,0.00,weatherlink.com 1.10,2013-04-30 14:27:00,
2013-04-30 10:42:00,53.3,50.0,30.12,NE,51,5.0,8.0,88,0.00,,,0.00,weatherlink.com 1.10,2013-04-30 14:42:00,
2013-04-30 10:57:00,53.4,50.0,30.13,NE,41,1.0,5.0,88,0.00,,,0.00,weatherlink.com 1.10,2013-04-30 14:57:00,
2013-04-30 11:12:00,53.5,50.0,30.13,NE,55,0.0,2.0,87,0.00,,,0.00,weatherlink.com 1.10,2013-04-30 15:12:00,
2013-04-30 11:27:00,54.0,50.0,30.13,NW,317,0.0,3.0,87,0.00,,,0.00,weatherlink.com 1.10,2013-04-30 15:27:00,
2013-04-30 11:42:00,54.1,50.0,30.13,NE,53,4.0,4.0,87,0.00,,,0.00,weatherlink.com 1.10,2013-04-30 15:42:00,
2013-04-30 11:57:00,54.3,50.0,30.13,NNE,15,1.0,5.0,86,0.00,,,0.00,weatherlink.com 1.10,2013-04-30 15:57:00,
2013-04-30 12:12:00,54.9,51.0,30.13,NE,44,1.0,3.0,85,0.00,,,0.00,weatherlink.com 1.10,2013-04-30 16:12:00,
2013-04-30 12:27:00,55.5,51.0,30.12,ENE,63,1.0,3.0,84,0.00,,,0.00,weatherlink.com 1.10,2013-04-30 16:27:00,
2013-04-30 12:43:00,56.0,50.0,30.12,NNE,32,3.0,4.0,81,0.00,,,0.00,weatherlink.com 1.10,2013-04-30 16:43:00,
2013-04-30 12:58:00,56.8,51.0,30.12,NE,44,0.0,5.0,80,0.00,,,0.00,weatherlink.com 1.10,2013-04-30 16:58:00,
2013-04-30 13:13:00,56.9,51.0,30.12,NE,55,3.0,8.0,81,0.00,,,0.00,weatherlink.com 1.10,2013-04-30 17:13:00,
2013-04-30 13:43:00,57.0,51.0,30.11,NNE,20,4.0,7.0,79,0.00,,,0.00,weatherlink.com 1.10,2013-04-30 17:43:00,
2013-04-30 13:58:00,57.0,51.0,30.12,NNE,19,4.0,7.0,79,0.00,,,0.00,weatherlink.com 1.10,2013-04-30 17:58:00,
2013-04-30 14:13:00,57.0,51.0,30.12,ENE,63,2.0,6.0,79,0.00,,,0.00,weatherlink.com 1.10,2013-04-30 18:13:00,
2013-04-30 14:28:00,57.3,51.0,30.12,NE,49,5.0,8.0,80,0.00,,,0.00,weatherlink.com 1.10,2013-04-30 18:28:00,
2013-04-30 14:43:00,57.4,51.0,30.13,NNW,344,0.0,5.0,80,0.00,,,0.00,weatherlink.com 1.10,2013-04-30 18:43:00,
2013-04-30 14:58:00,56.7,51.0,30.13,ENE,60,10.0,10.0,82,0.00,,,0.00,weatherlink.com 1.10,2013-04-30 18:58:00,
2013-04-30 15:13:00,56.3,51.0,30.14,NE,36,8.0,9.0,83,0.00,,,0.00,weatherlink.com 1.10,2013-04-30 19:13:00,
2013-04-30 15:28:00,56.4,51.0,30.14,NE,42,1.0,6.0,83,0.00,,,0.00,weatherlink.com 1.10,2013-04-30 19:28:00,
2013-04-30 15:43:00,57.0,51.0,30.14,NE,46,3.0,5.0,81,0.00,,,0.00,weatherlink.com 1.10,2013-04-30 19:43:00,
2013-04-30 15:58:00,57.3,51.0,30.14,ENE,59,3.0,7.0,80,0.00,,,0.00,weatherlink.com 1.10,2013-04-30 19:58:00,
2013-04-30 16:13:00,57.6,51.0,30.14,ENE,71,2.0,6.0,79,0.00,,,0.00,weatherlink.com 1.10,2013-04-30 20:13:00,
2013-04-30 16:28:00,58.0,52.0,30.14,NNE,30,7.0,7.0,80,0.00,,,0.00,weatherlink.com 1.10,2013-04-30 20:28:00,
2013-04-30 16:43:00,58.2,52.0,30.14,East,81,3.0,10.0,81,0.00,,,0.00,weatherlink.com 1.10,2013-04-30 20:43:00,
2013-04-30 16:58:00,57.8,52.0,30.14,NE,50,5.0,11.0,82,0.00,,,0.00,weatherlink.com 1.10,2013-04-30 20:58:00,
2013-04-30 17:13:00,57.6,52.0,30.13,ENE,65,4.0,14.0,82,0.00,,,0.00,weatherlink.com 1.10,2013-04-30 21:13:00,
2013-04-30 17:28:00,57.3,52.0,30.14,ENE,76,3.0,12.0,82,0.00,,,0.00,weatherlink.com 1.10,2013-04-30 21:28:00,
2013-04-30 17:43:00,56.6,52.0,30.14,NE,49,4.0,11.0,83,0.00,,,0.00,weatherlink.com 1.10,2013-04-30 21:43:00,
2013-04-30 17:58:00,56.6,52.0,30.14,NE,49,8.0,12.0,85,0.00,,,0.00,weatherlink.com 1.10,2013-04-30 21:58:00,
2013-04-30 18:13:00,56.5,52.0,30.14,ENE,65,5.0,10.0,86,0.00,,,0.00,weatherlink.com 1.10,2013-04-30 22:13:00,
2013-04-30 18:28:00,56.7,52.0,30.15,East,93,6.0,11.0,84,0.00,,,0.00,weatherlink.com 1.10,2013-04-30 22:28:00,
2013-04-30 18:43:00,56.2,52.0,30.16,ENE,63,3.0,9.0,86,0.00,,,0.00,weatherlink.com 1.10,2013-04-30 22:43:00,
2013-04-30 18:58:00,55.7,52.0,30.16,NNE,26,0.0,6.0,86,0.00,,,0.00,weatherlink.com 1.10,2013-04-30 22:58:00,
2013-04-30 19:13:00,55.4,52.0,30.16,NE,41,4.0,10.0,87,0.00,,,0.00,weatherlink.com 1.10,2013-04-30 23:13:00,
2013-04-30 19:28:00,54.6,51.0,30.18,East,84,3.0,10.0,88,0.00,,,0.00,weatherlink.com 1.10,2013-04-30 23:28:00,
2013-04-30 19:43:00,54.2,51.0,30.18,NE,38,3.0,11.0,89,0.00,,,0.00,weatherlink.com 1.10,2013-04-30 23:43:00,
2013-04-30 19:58:00,53.8,51.0,30.19,ENE,64,5.0,9.0,90,0.00,,,0.00,weatherlink.com 1.10,2013-04-30 23:58:00,
2013-04-30 20:13:00,53.5,51.0,30.19,NNE,29,1.0,9.0,91,0.00,,,0.00,weatherlink.com 1.10,2013-05-01 00:13:00,
2013-04-30 20:28:00,53.3,51.0,30.19,NE,44,2.0,7.0,91,0.00,,,0.00,weatherlink.com 1.10,2013-05-01 00:28:00,
2013-04-30 20:43:00,53.0,51.0,30.20,NNE,21,0.0,5.0,91,0.00,,,0.00,weatherlink.com 1.10,2013-05-01 00:43:00,
2013-04-30 20:58:00,52.8,50.0,30.20,ENE,75,2.0,4.0,91,0.00,,,0.00,weatherlink.com 1.10,2013-05-01 00:58:00,
2013-04-30 21:13:00,52.7,50.0,30.21,NE,55,0.0,4.0,91,0.00,,,0.00,weatherlink.com 1.10,2013-05-01 01:13:00,
2013-04-30 21:28:00,52.6,50.0,30.22,NNW,328,2.0,2.0,91,0.00,,,0.00,weatherlink.com 1.10,2013-05-01 01:28:00,
2013-04-30 21:43:00,52.4,50.0,30.22,NNW,339,0.0,1.0,92,0.00,,,0.00,weatherlink.com 1.10,2013-05-01 01:43:00,
2013-04-30 21:58:00,52.3,50.0,30.23,NE,38,0.0,3.0,93,0.00,,,0.00,weatherlink.com 1.10,2013-05-01 01:58:00,
2013-04-30 22:13:00,52.3,50.0,30.23,NE,38,0.0,0.0,93,0.00,,,0.00,weatherlink.com 1.10,2013-05-01 02:13:00,
2013-04-30 22:28:00,52.1,51.0,30.23,NNE,33,1.0,4.0,94,0.00,,,0.00,weatherlink.com 1.10,2013-05-01 02:28:00,
2013-04-30 22:43:00,52.0,50.0,30.23,NE,38,0.0,3.0,94,0.00,,,0.00,weatherlink.com 1.10,2013-05-01 02:43:00,
2013-04-30 22:58:00,51.9,50.0,30.23,NE,44,0.0,4.0,94,0.00,,,0.00,weatherlink.com 1.10,2013-05-01 02:58:00,
2013-04-30 23:13:00,51.9,50.0,30.23,ENE,61,0.0,5.0,94,0.00,,,0.00,weatherlink.com 1.10,2013-05-01 03:13:00,
2013-04-30 23:28:00,51.8,51.0,30.23,ENE,61,0.0,3.0,95,0.00,,,0.00,weatherlink.com 1.10,2013-05-01 03:28:00,
2013-04-30 23:43:00,51.7,50.0,30.23,ENE,76,0.0,4.0,95,0.00,,,0.00,weatherlink.com 1.10,2013-05-01 03:43:00,
2013-04-30 23:58:00,51.5,50.0,30.23,ENE,76,0.0,0.0,95,0.00,,,0.00,weatherlink.com 1.10,2013-05-01 03:58:00,